RYR1YP EGPH-LPPR

Flight info

Callsign RYR1YP
Flight time N/A
Altitude 34000
Route GOSAM DCT TRN DCT DEGOS/M075F340 DCT LASNO T9 BEGAS/N0438F340 DCT ELTEP T328 ASPOR
Aircraft B738/M-SDE2E3FGHIRWXY/LB1

Departure

Time N/A
Airport Edinburgh Airport (EGPH)

Arrival

Time 2026-05-04 11:28
Airport Francisco de Sá Carneiro Airport (LPPR)
Time Latitude Longitude Altitude Speed Heading
2026-05-04 10:02 49.45735 -8.71058 34020 ft 445 kts 191°
2026-05-04 10:04 49.24603 -8.78270 34016 ft 444 kts 191°
2026-05-04 10:04 49.18580 -8.80314 34018 ft 443 kts 191°
2026-05-04 10:05 49.12610 -8.82335 34011 ft 442 kts 191°
2026-05-04 10:05 49.06603 -8.84363 34009 ft 441 kts 191°
2026-05-04 10:06 49.00612 -8.86381 33999 ft 441 kts 191°
2026-05-04 10:06 48.94627 -8.88392 34025 ft 440 kts 191°
2026-05-04 10:08 48.73695 -8.95387 34013 ft 440 kts 191°
2026-05-04 10:08 48.67726 -8.97372 34007 ft 439 kts 191°
2026-05-04 10:09 48.61763 -8.99349 34007 ft 438 kts 191°
2026-05-04 10:09 48.55735 -9.00185 34016 ft 434 kts 178°
2026-05-04 10:10 48.49692 -9.00110 34004 ft 434 kts 178°
2026-05-04 10:10 48.43692 -9.00033 34004 ft 434 kts 178°
2026-05-04 10:11 48.37658 -9.00002 34005 ft 434 kts 178°
2026-05-04 10:11 48.31621 -8.99996 34005 ft 434 kts 178°
2026-05-04 10:12 48.25586 -8.99997 34009 ft 434 kts 178°
2026-05-04 10:12 48.19546 -8.99999 34002 ft 434 kts 178°
2026-05-04 10:13 48.13507 -8.99999 34003 ft 434 kts 178°
2026-05-04 10:13 48.07473 -8.99999 34005 ft 434 kts 178°
2026-05-04 10:14 48.01434 -8.99999 33999 ft 434 kts 178°
2026-05-04 10:16 47.77290 -8.99999 33999 ft 434 kts 178°
2026-05-04 10:16 47.71294 -8.99999 34004 ft 434 kts 178°
2026-05-04 10:17 47.65262 -8.99999 34002 ft 433 kts 179°
2026-05-04 10:19 47.41172 -8.99999 33993 ft 432 kts 179°
2026-05-04 10:19 47.35160 -9.00000 33995 ft 432 kts 179°
2026-05-04 10:20 47.29149 -9.00000 33995 ft 432 kts 179°
2026-05-04 10:20 47.23142 -9.00000 34002 ft 432 kts 179°
2026-05-04 10:21 47.17132 -8.99999 33992 ft 432 kts 179°
2026-05-04 10:21 47.11127 -8.99999 33995 ft 432 kts 179°
2026-05-04 10:22 47.02121 -8.99999 34003 ft 431 kts 179°
2026-05-04 10:23 46.96114 -8.99999 33994 ft 432 kts 179°
2026-05-04 10:25 46.73056 -8.99999 34001 ft 435 kts 179°
2026-05-04 10:25 46.66996 -9.00000 34006 ft 436 kts 180°
2026-05-04 10:26 46.60912 -9.00000 34008 ft 438 kts 180°
2026-05-04 10:26 46.54816 -9.00000 34003 ft 438 kts 180°
2026-05-04 10:27 46.48715 -8.99999 33995 ft 438 kts 180°
2026-05-04 10:27 46.42622 -8.99999 33999 ft 437 kts 180°
2026-05-04 10:28 46.36550 -9.00000 33995 ft 436 kts 180°
2026-05-04 10:28 46.30498 -9.00000 34004 ft 434 kts 180°
2026-05-04 10:29 46.24465 -9.00000 34000 ft 433 kts 180°
2026-05-04 10:29 46.18442 -9.00000 34008 ft 432 kts 180°
2026-05-04 10:30 46.12426 -9.00000 33999 ft 432 kts 180°
2026-05-04 10:30 46.06451 -9.00000 34008 ft 432 kts 180°
2026-05-04 10:31 46.00435 -9.00000 34003 ft 433 kts 181°
2026-05-04 10:32 45.79377 -9.00000 34010 ft 432 kts 181°
2026-05-04 10:33 45.73369 -9.00000 34006 ft 432 kts 181°
2026-05-04 10:33 45.67366 -9.00000 34009 ft 431 kts 181°
2026-05-04 10:34 45.61370 -8.99999 34010 ft 431 kts 181°
2026-05-04 10:34 45.55379 -8.99998 34003 ft 431 kts 181°
2026-05-04 10:35 45.49384 -8.99999 34020 ft 431 kts 181°
2026-05-04 10:35 45.43379 -8.99999 34018 ft 432 kts 181°
2026-05-04 10:36 45.37364 -9.00000 34024 ft 433 kts 181°
2026-05-04 10:36 45.31334 -9.00000 34019 ft 433 kts 182°
2026-05-04 10:37 45.25301 -9.00000 34022 ft 434 kts 181°
2026-05-04 10:37 45.19268 -8.99999 34020 ft 433 kts 181°
2026-05-04 10:39 44.98312 -8.99148 34027 ft 433 kts 166°
2026-05-04 10:40 44.92639 -8.96260 34025 ft 433 kts 161°
2026-05-04 10:40 44.87020 -8.93184 34040 ft 433 kts 161°
2026-05-04 10:41 44.81394 -8.90149 34037 ft 433 kts 161°
2026-05-04 10:41 44.75766 -8.87159 34030 ft 433 kts 161°
2026-05-04 10:42 44.70129 -8.84187 34033 ft 433 kts 161°
2026-05-04 10:42 44.64492 -8.81223 34031 ft 433 kts 161°
2026-05-04 10:43 44.58854 -8.78264 34034 ft 433 kts 161°
2026-05-04 10:45 44.36271 -8.66471 34038 ft 433 kts 161°
2026-05-04 10:45 44.30629 -8.63540 34038 ft 432 kts 161°
2026-05-04 10:46 44.24995 -8.60619 34041 ft 432 kts 162°
2026-05-04 10:46 44.19368 -8.57707 34048 ft 431 kts 162°
2026-05-04 10:47 44.13743 -8.54803 34047 ft 431 kts 162°
2026-05-04 10:47 44.08153 -8.51922 34042 ft 431 kts 162°
2026-05-04 10:49 43.85606 -8.40363 34051 ft 433 kts 163°
2026-05-04 10:50 43.79957 -8.37481 34051 ft 433 kts 163°
2026-05-04 10:52 43.57341 -8.26001 34047 ft 432 kts 163°
2026-05-04 10:52 43.51690 -8.23147 34033 ft 432 kts 163°
2026-05-04 10:54 43.29113 -8.11802 34040 ft 432 kts 164°
2026-05-04 10:56 43.06511 -8.00534 34062 ft 433 kts 164°
2026-05-04 10:57 43.00837 -7.97720 34061 ft 434 kts 164°
2026-05-04 10:57 42.95198 -7.94925 33996 ft 424 kts 164°
2026-05-04 10:57 42.92446 -7.93560 33698 ft 417 kts 165°
2026-05-04 10:58 42.89746 -7.92224 33379 ft 411 kts 165°
2026-05-04 10:58 42.87074 -7.90906 33068 ft 406 kts 165°
2026-05-04 10:58 42.84427 -7.89601 32684 ft 403 kts 165°
2026-05-04 10:58 42.81797 -7.88307 32323 ft 400 kts 165°
2026-05-04 10:59 42.79193 -7.87026 31983 ft 397 kts 165°
2026-05-04 10:59 42.76605 -7.85755 31627 ft 394 kts 165°
2026-05-04 10:59 42.74040 -7.84495 31260 ft 391 kts 166°
2026-05-04 10:59 42.71491 -7.83244 30927 ft 388 kts 166°
2026-05-04 11:00 42.68964 -7.82004 30604 ft 385 kts 166°
2026-05-04 11:01 42.52004 -7.81935 28226 ft 348 kts 201°
2026-05-04 11:02 42.49676 -7.82830 27884 ft 347 kts 201°
2026-05-04 11:02 42.47394 -7.83698 27534 ft 344 kts 201°
2026-05-04 11:05 42.16326 -7.95277 22949 ft 320 kts 201°
2026-05-04 11:06 42.14195 -7.96064 22621 ft 317 kts 201°
2026-05-04 11:06 42.12075 -7.96848 22294 ft 315 kts 201°
2026-05-04 11:06 42.09970 -7.97626 22009 ft 313 kts 201°
2026-05-04 11:06 42.07863 -7.98406 21695 ft 315 kts 201°
2026-05-04 11:08 41.93079 -8.03850 19525 ft 309 kts 200°
2026-05-04 11:10 41.78840 -8.09915 17288 ft 299 kts 214°
2026-05-04 11:12 41.66109 -8.18566 15194 ft 293 kts 201°
2026-05-04 11:12 41.64173 -8.19399 14913 ft 292 kts 201°
2026-05-04 11:12 41.62250 -8.20238 14647 ft 291 kts 202°
2026-05-04 11:12 41.60324 -8.21091 14335 ft 292 kts 202°
2026-05-04 11:13 41.58400 -8.21954 14041 ft 291 kts 202°
2026-05-04 11:13 41.56484 -8.22819 13732 ft 290 kts 202°
2026-05-04 11:13 41.54574 -8.23686 13416 ft 289 kts 202°
2026-05-04 11:13 41.52677 -8.24549 13121 ft 287 kts 202°
2026-05-04 11:14 41.50789 -8.25409 12824 ft 286 kts 202°
2026-05-04 11:14 41.48913 -8.26264 12521 ft 284 kts 202°
2026-05-04 11:14 41.47055 -8.27110 12246 ft 282 kts 202°
2026-05-04 11:16 41.34528 -8.32804 10361 ft 286 kts 201°
2026-05-04 11:16 41.32653 -8.33653 10144 ft 283 kts 202°
2026-05-04 11:16 41.30808 -8.34488 9922 ft 280 kts 201°
2026-05-04 11:17 41.28964 -8.35322 9623 ft 279 kts 201°
2026-05-04 11:17 41.27134 -8.36150 9333 ft 277 kts 202°
2026-05-04 11:19 41.14603 -8.41808 7434 ft 269 kts 201°
2026-05-04 11:19 41.12826 -8.42608 7145 ft 269 kts 201°
2026-05-04 11:19 41.11067 -8.43399 6892 ft 268 kts 201°
2026-05-04 11:19 41.09306 -8.44193 6631 ft 267 kts 202°
2026-05-04 11:20 41.07547 -8.44984 6357 ft 266 kts 201°
2026-05-04 11:20 41.05821 -8.45758 6055 ft 258 kts 201°
2026-05-04 11:20 41.04148 -8.46509 5814 ft 250 kts 201°
2026-05-04 11:20 41.02529 -8.47236 5588 ft 241 kts 202°
2026-05-04 11:22 40.98778 -8.59236 4887 ft 199 kts 279°
2026-05-04 11:22 40.99355 -8.60827 4755 ft 196 kts 315°
2026-05-04 11:23 41.00531 -8.61741 4678 ft 200 kts 342°
2026-05-04 11:23 41.01902 -8.62127 4443 ft 204 kts 347°
2026-05-04 11:24 41.09751 -8.64187 2949 ft 188 kts 346°
2026-05-04 11:25 41.11024 -8.64520 2718 ft 189 kts 347°
2026-05-04 11:25 41.12300 -8.64852 2472 ft 186 kts 346°
2026-05-04 11:25 41.13548 -8.65176 2220 ft 180 kts 345°
2026-05-04 11:26 41.16003 -8.65818 1726 ft 174 kts 346°
2026-05-04 11:27 41.22978 -8.67643 351 ft 143 kts 346°
2026-05-04 11:28 41.23935 -8.67890 222 ft 134 kts 346°
2026-05-04 11:28 41.24645 -8.68083 202 ft 72 kts 348°
2026-05-04 11:28 41.25024 -8.68175 186 ft 41 kts 356°
2026-05-04 11:28 41.25258 -8.68110 179 ft 18 kts 22°
2026-05-04 11:29 41.25252 -8.68017 182 ft 14 kts 169°
2026-05-04 11:29 41.25156 -8.67987 197 ft 14 kts 167°
2026-05-04 11:29 41.25047 -8.67952 203 ft 20 kts 169°
2026-05-04 11:29 41.24890 -8.67908 203 ft 25 kts 158°
2026-05-04 11:31 41.24070 -8.67430 241 ft 14 kts 164°
2026-05-04 11:33 41.23792 -8.67367 243 ft 0 kts 49°